2023/08/11 00:00:00, 0.6,24.7
2023/08/11 00:10:00, 0.6,24.5
2023/08/11 00:20:00, 0.6,24.7
2023/08/11 00:30:00, 0.6,24.8
2023/08/11 00:40:00, 0.6,24.9
2023/08/11 00:50:00, 0.7,25.0
2023/08/11 01:00:00, 0.6,25.1
2023/08/11 01:10:00, 0.6,25.2
2023/08/11 01:20:00, 0.7,25.4
2023/08/11 01:30:00, 0.7,25.5
2023/08/11 01:40:00, 0.7,25.5
2023/08/11 01:50:00, 0.6,25.5
2023/08/11 02:00:00, 0.6,25.4
2023/08/11 02:10:00, 0.6,25.4
2023/08/11 02:20:00, 0.6,25.4
2023/08/11 02:30:00, 0.6,25.4
2023/08/11 02:40:00, 0.6,25.6
2023/08/11 02:50:00, 0.6,25.4
2023/08/11 03:00:00, 0.6,25.4
2023/08/11 03:10:00, 0.6,25.1
2023/08/11 03:20:00, 0.6,25.6
2023/08/11 03:30:00, 0.6,25.7
2023/08/11 03:40:00, 0.6,25.9
2023/08/11 03:50:00, 0.6,25.8
2023/08/11 04:00:00, 0.7,25.8
2023/08/11 04:10:00, 0.6,25.5
2023/08/11 04:20:00, 0.6,25.5
2023/08/11 04:30:00, 0.6,25.3
2023/08/11 04:40:00, 0.6,25.3
2023/08/11 04:50:00, 0.6,25.2
2023/08/11 05:00:00, 0.6,25.1
2023/08/11 05:10:00, 0.6,25.1
2023/08/11 05:20:00, 0.6,25.1
2023/08/11 05:30:00, 0.6,25.1
2023/08/11 05:40:00, 0.6,25.2
2023/08/11 05:50:00, 0.6,25.3
2023/08/11 06:00:00, 0.6,25.5
2023/08/11 06:10:00, 0.6,25.8
2023/08/11 06:20:00, 0.6,25.9
2023/08/11 06:30:00, 0.6,31.4
2023/08/11 06:40:00, 0.6,31.2
2023/08/11 06:50:00, 0.6,32.1
2023/08/11 07:00:00, 0.6,31.8
2023/08/11 07:10:00, 0.5,27.6
2023/08/11 07:20:00, 0.6,27.8
2023/08/11 07:30:00, 0.6,27.1
2023/08/11 07:40:00, 0.5,27.2
2023/08/11 07:50:00, 0.6,27.6
2023/08/11 08:00:00, 0.5,28.6
2023/08/11 08:10:00, 0.5,30.1
2023/08/11 08:20:00, 0.5,30.2
2023/08/11 08:30:00, 0.5,30.4
2023/08/11 08:40:00, 0.7,30.6
2023/08/11 08:50:00, 0.7,30.6
2023/08/11 09:00:00, 0.7,30.3
2023/08/11 09:10:00, 0.7,30.2
2023/08/11 09:20:00, 0.7,31.0
2023/08/11 09:30:00, 0.7,31.9
2023/08/11 09:40:00, 0.7,33.0
2023/08/11 09:50:00, 0.7,33.9
2023/08/11 10:00:00, 0.6,33.8
2023/08/11 10:10:00, 0.8,33.6
2023/08/11 10:20:00, 0.8,34.0
2023/08/11 10:30:00, 0.8,34.2
2023/08/11 10:40:00, 0.7,34.0
2023/08/11 10:50:00, 0.7,33.9
2023/08/11 11:00:00, 0.7,33.2
2023/08/11 11:10:00, 0.7,33.5
2023/08/11 11:20:00, 0.7,33.4
2023/08/11 11:30:00, 0.8,34.3
2023/08/11 11:40:00, 0.7,34.8
2023/08/11 11:50:00, 0.8,34.8
2023/08/11 12:00:00, 0.7,34.8
2023/08/11 12:10:00, 0.7,34.7
2023/08/11 12:20:00, 0.6,33.1
2023/08/11 12:30:00, 0.6,32.9
2023/08/11 12:40:00, 0.7,34.3
2023/08/11 12:50:00, 0.7,33.6
2023/08/11 13:00:00, 0.8,34.9
2023/08/11 13:10:00, 0.7,34.4
2023/08/11 13:20:00, 0.5,34.9
2023/08/11 13:30:00, 0.7,35.2
2023/08/11 13:40:00, 0.7,35.1
2023/08/11 13:50:00, 0.7,34.8
2023/08/11 14:00:00, 0.7,34.7
2023/08/11 14:10:00, 0.7,34.3
2023/08/11 14:20:00, 0.7,33.5
2023/08/11 14:30:00, 0.7,33.5
2023/08/11 14:40:00, 0.7,33.1
2023/08/11 14:50:00, 0.7,32.8
2023/08/11 15:00:00, 0.7,32.8
2023/08/11 15:10:00, 0.7,32.3
2023/08/11 15:20:00, 0.7,32.0
2023/08/11 15:30:00, 0.8,32.0
2023/08/11 15:40:00, 0.7,32.1
2023/08/11 15:50:00, 0.6,31.9
2023/08/11 16:00:00, 0.6,32.6
2023/08/11 16:10:00, 0.6,32.0
2023/08/11 16:20:00, 0.7,32.0
2023/08/11 16:30:00, 0.8,32.1
2023/08/11 16:40:00, 0.8,31.7
2023/08/11 16:50:00, 0.7,31.6
2023/08/11 17:00:00, 0.5,31.4
2023/08/11 17:10:00, 0.5,31.2
2023/08/11 17:20:00, 0.5,30.9
2023/08/11 17:30:00, 0.5,30.8
2023/08/11 17:40:00, 0.6,29.8
2023/08/11 17:50:00, 0.5,29.5
2023/08/11 18:00:00, 0.5,29.3
2023/08/11 18:10:00, 0.6,28.8
2023/08/11 18:20:00, 0.6,28.8
2023/08/11 18:30:00, 0.6,28.2
2023/08/11 18:40:00, 0.6,27.9
2023/08/11 18:50:00, 0.6,27.8
2023/08/11 19:00:00, 0.6,27.8
2023/08/11 19:10:00, 0.6,27.6
2023/08/11 19:20:00, 0.6,27.6
2023/08/11 19:30:00, 0.6,27.2
2023/08/11 19:40:00, 0.6,27.2
2023/08/11 19:50:00, 0.6,27.0
2023/08/11 20:00:00, 0.6,26.6
2023/08/11 20:10:00, 0.7,26.5
2023/08/11 20:20:00, 0.7,26.3
2023/08/11 20:30:00, 0.6,26.1
2023/08/11 20:40:00, 0.7,25.8
2023/08/11 20:50:00, 0.7,25.8
2023/08/11 21:00:00, 0.7,25.6
2023/08/11 21:10:00, 0.6,25.6
2023/08/11 21:20:00, 0.6,25.1
2023/08/11 21:30:00, 0.7,25.1
2023/08/11 21:40:00, 0.7,25.1
2023/08/11 21:50:00, 0.6,25.0
2023/08/11 22:00:00, 0.6,25.1
2023/08/11 22:10:00, 0.6,24.5
2023/08/11 22:20:00, 0.7,25.2
2023/08/11 22:30:00, 0.6,24.2
2023/08/11 22:40:00, 0.6,24.4
2023/08/11 22:50:00, 0.6,24.2
2023/08/11 23:00:00, 0.6,24.1
2023/08/11 23:10:00, 0.6,24.1
2023/08/11 23:20:00, 0.7,24.2
2023/08/11 23:30:00, 0.7,24.0
2023/08/11 23:40:00, 0.7,23.9
2023/08/11 23:50:00, 0.7,23.7
